TimeEDT,TemperatureF,Dew PointF,Humidity,Sea Level PressureIn,VisibilityMPH,Wind Direction,Wind SpeedMPH,Gust SpeedMPH,PrecipitationIn,Events,Conditions,WindDirDegrees,DateUTC
12:54 AM,64.0,57.9,80,30.00,10.0,Calm,Calm,-,N/A,,Partly Cloudy,0,2013-07-12 04:54:00
1:54 AM,60.1,57.0,90,30.01,10.0,Calm,Calm,-,N/A,,Clear,0,2013-07-12 05:54:00
2:54 AM,57.9,55.9,93,30.02,10.0,Calm,Calm,-,N/A,,Clear,0,2013-07-12 06:54:00
3:54 AM,57.9,55.9,93,30.03,10.0,Calm,Calm,-,N/A,,Clear,0,2013-07-12 07:54:00
4:54 AM,59.0,55.9,90,30.04,10.0,Calm,Calm,-,N/A,,Partly Cloudy,0,2013-07-12 08:54:00
5:54 AM,61.0,57.0,87,30.07,10.0,Calm,Calm,-,N/A,,Mostly Cloudy,0,2013-07-12 09:54:00
6:54 AM,64.0,59.0,84,30.07,10.0,Calm,Calm,-,N/A,,Partly Cloudy,0,2013-07-12 10:54:00
7:54 AM,66.9,59.0,76,30.09,10.0,Calm,Calm,-,N/A,,Mostly Cloudy,0,2013-07-12 11:54:00
8:54 AM,70.0,60.1,71,30.11,10.0,Calm,Calm,-,N/A,,Mostly Cloudy,0,2013-07-12 12:54:00
9:54 AM,73.0,59.0,61,30.11,10.0,Calm,Calm,-,N/A,,Clear,0,2013-07-12 13:54:00
10:54 AM,77.0,57.0,50,30.12,10.0,East,4.6,-,N/A,,Clear,80,2013-07-12 14:54:00
11:54 AM,78.1,57.0,48,30.11,10.0,SSE,5.8,-,N/A,,Clear,160,2013-07-12 15:54:00
12:54 PM,78.1,57.0,48,30.11,10.0,NW,4.6,-,N/A,,Mostly Cloudy,320,2013-07-12 16:54:00
1:54 PM,79.0,57.9,48,30.11,10.0,Calm,Calm,-,N/A,,Overcast,0,2013-07-12 17:54:00
2:54 PM,81.0,60.1,49,30.11,10.0,Variable,4.6,-,N/A,,Mostly Cloudy,0,2013-07-12 18:54:00
3:54 PM,82.9,60.1,46,30.10,10.0,Calm,Calm,-,N/A,,Mostly Cloudy,0,2013-07-12 19:54:00
4:54 PM,82.0,59.0,45,30.11,10.0,Calm,Calm,-,N/A,,Mostly Cloudy,0,2013-07-12 20:54:00
5:54 PM,78.1,60.1,54,30.11,10.0,ESE,3.5,-,N/A,,Scattered Clouds,120,2013-07-12 21:54:00
6:54 PM,75.9,59.0,56,30.12,10.0,ESE,5.8,-,N/A,,Clear,120,2013-07-12 22:54:00
7:54 PM,73.9,61.0,64,30.13,10.0,Calm,Calm,-,N/A,,Clear,0,2013-07-12 23:54:00
8:54 PM,73.0,60.1,64,30.14,7.0,NE,3.5,-,N/A,,Clear,40,2013-07-13 00:54:00
9:54 PM,71.1,57.9,63,30.16,10.0,Calm,Calm,-,N/A,,Clear,0,2013-07-13 01:54:00
10:54 PM,69.1,59.0,70,30.18,10.0,Variable,4.6,-,N/A,,Clear,0,2013-07-13 02:54:00
11:54 PM,70.0,55.0,59,30.18,10.0,Variable,4.6,-,N/A,,Clear,0,2013-07-13 03:54:00